Location: ?
(35.4554°N, 139.3092°E)
Time: 21:24:42
(UTC+00:00)

CZ-2D R/B - Pass Details

Date: 21 April 2021
Orbit: 552 x 638 km, 97.9° (Epoch: 10 May)

Event Time Altitude Azimuth Distance (km) Brightness Sun altitude
Rises 18:02:03 0° 11° (NNE) 2,814 7.6 -22.9°
Reaches altitude 10° 18:04:11 10° 12° (NNE) 1,924 6.7 -22.5°
Maximum altitude 18:08:22 88° 280° (W) 607 3.4 -21.8°
Enters shadow 18:09:08 60° 197° (SSW) 693 3.5 -21.7°
